Regional Weather Roundup
Issued by NWS

Home | Current Version | Previous Version | Text Only | Print | Product List | Glossary Off
Versions: 1 2 3 4 5 6 7 8 9 10 11 12 13 14 15 16 17 18 19 20 21 22 23 24 25 26 27 28 29 30 31 32 33 34 35 36 37 38 39 40 41 42 43 44 45 46 47 48 49 50

000
ASUS43 KDTX 181401
RWRMI
MICHIGAN HOURLY REGIONAL WEATHER ROUNDUP
NATIONAL WEATHER SERVICE DETROIT/PONTIAC MI
1000 AM EDT SAT APR 18 2015

NOTE: "FAIR" INDICATES FEW OR NO CLOUDS BELOW 12,000 FEET WITH NO
SIGNIFICANT WEATHER AND/OR OBSTRUCTION TO VISIBILITY.

MIZ047>049-052>055-059>063-066>070-074>076-081>083-181500-
SOUTHEAST LOWER MICHIGAN

CITY           SKY/WX    TMP DP  RH WIND       PRES   REMARKS
ADRIAN         MOSUNNY   69  49  48 VRB7      30.05F
ALMA           SUNNY     62  34  35 N13G18    30.09R
ANN ARBOR      MOSUNNY   67  44  43 N14       30.05R
BAD AXE        SUNNY     53  33  45 N22       30.11R
CARO           SUNNY     58  40  50 N13G18    30.09R
DETROIT CITY   MOSUNNY   67  42  40 N12       30.05F
DETROIT        PTSUNNY   69  45  41 N8        30.05S
FLINT          SUNNY     65  39  38 NE12      30.08R
GROSSE ILE     CLOUDY    63  46  55 N6        30.04R
HILLSDALE      MOSUNNY   68  47  47 NW7       30.05F
HOWELL         MOSUNNY   63  39  41 N7G16     30.07R

CITY           SKY/WX    TMP DP  RH WIND       PRES   REMARKS
JACKSON        MOSUNNY   65  46  50 N12       30.05S
LAMBERTVILLE   MOSUNNY   68  46  45 NW3       30.04F
LANSING        MOSUNNY   63  40  42 NE10G17   30.08R
LAPEER         FAIR      62  39  42 N9        30.07S
MASON          MOSUNNY   63  42  47 N13       30.07R
MONROE         MOSUNNY   64  48  55 W5        30.03S
PONTIAC        PTSUNNY   64  40  41 N14       30.06R
PORT HOPE        N/A     48  36  63 NW12      30.10R
PORT HURON     SUNNY     63  41  45 N9G17     30.06R
TRI CITIES     SUNNY     62  38  40 NE16      30.09R
TROY           SUNNY     67  41  38 N15       30.07R
SAGINAW HB     SUNNY     59  36  41 N17       30.09R
$$
MIZ043>046-050>051-056>058-064>065-071>073-077>080-181500-
SOUTHWEST LOWER MICHIGAN

CITY           SKY/WX    TMP DP  RH WIND       PRES   REMARKS
BATTLE CREEK   MOSUNNY   64  47  53 N8        30.07R
BENTON HARBOR  SUNNY     59  46  62 NE6       30.05S
BIG RAPIDS     SUNNY     59  32  36 N7G16     30.09S
COLDWATER      SUNNY     65  49  56 NW5       30.04F
FREMONT        FAIR      60  30  31 NE7       30.09R
HOLLAND        MOSUNNY   62  42  47 NE10G20   30.07S
GRAND RAPIDS   PTSUNNY   63  38  39 NE14      30.07S
IONIA          FAIR      63  37  38 NE13      30.08R
KALAMAZOO      MOSUNNY   66  49  54 N15       30.06S
LUDINGTON      SUNNY     56  38  52 NE8G20    30.13S
MARSHALL       MOSUNNY   63  47  55 N3        30.05S
MOUNT PLEASANT SUNNY     60  35  39 N10G18    30.09R
MUSKEGON       PTSUNNY   62  36  37 NE12      30.09R
SOUTH HAVEN    MOSUNNY   62  45  54 NE10      30.05F
$$
MIZ016>042-181500-
NORTHERN LOWER MICHIGAN

CITY           SKY/WX    TMP DP  RH WIND       PRES   REMARKS
ALPENA         SUNNY     51  30  44 N17       30.14R
BEAVER ISLAND  SUNNY     45  33  63 N15G22    30.19R
BELLAIRE       SUNNY     49  33  53 N6        30.17R
CADILLAC       SUNNY     52  34  50 N13G21    30.11S
CHARLEVOIX     SUNNY     41  34  74 N10       30.20F
FRANKFORT      SUNNY     49  32  51 N10G16    30.15S
GAYLORD        SUNNY     48  30  49 NE15      30.13S
GRAYLING       SUNNY     53  32  44 N16       30.13S
HARBOR SPRINGS SUNNY     49  31  49 NE8       30.17R
HOUGHTON LAKE  SUNNY     54  32  43 N14       30.12R
MANISTEE       SUNNY     52  36  54 NE17      30.15S
OSCODA         SUNNY     56  33  40 N17       30.11R
PELLSTON       SUNNY     49  31  49 N15       30.17R
ROGERS CITY    SUNNY     45  33  61 NW10G16   30.16R
TRAVERSE CITY  MOSUNNY   47  34  60 N7        30.16R
$$
MIZ007>008-015-181500-
EASTERN UPPER MICHIGAN

CITY           SKY/WX    TMP DP  RH WIND       PRES   REMARKS
KINROSS        SUNNY     45  34  65 N14       30.16R
MACKINAC ISLAN SUNNY     46  32  58 N12G17    30.17R
NEWBERRY       SUNNY     43  34  70 N17G24    30.19R
S. S. MARIE    SUNNY     48  31  51 N10G17    30.16R
$$
MIZ004>006-011>014-085-181500-
CENTRAL UPPER MICHIGAN

CITY           SKY/WX    TMP DP  RH WIND       PRES   REMARKS
MANISTIQUE     SUNNY     46  36  67 N17G25    30.18F
ESCANABA       MOSUNNY   45  34  65 N10G22    30.22R
MENOMINEE      SUNNY     46  34  61 NE14      30.20S
SAWYER-GWINN   PTSUNNY   39  34  81 NE18G24   30.23R WCI  30
$$
MIZ001>003-009>011-084-181500-
WESTERN UPPER MICHIGAN

CITY           SKY/WX    TMP DP  RH WIND       PRES   REMARKS
IRON MOUNTAIN  MOSUNNY   44  32  62 NE8       30.22R
HOUGHTON       MOSUNNY   42  32  67 SE8       30.24R
COPPER HARBOR    N/A     38  32  79 NE5       30.25S WCI  34
IRONWOOD       SUNNY     43  34  70 E13       30.19S
$$

ABBREVIATIONS USED IN REMARKS
   TC - TEMPERATURE IN CELSIUS
  WCI - WIND CHILL INDEX
   HX - HEAT INDEX
  VSB - VISIBILITY



USA.gov is the U.S. government's official web portal to all federal, state and local government web resources and services.